Total_Precipitation_Accumulation
0.87 0.93 0.92 0.97 1.07 1.35 1.57 1.51 1.33 1.34 1.38 1.35 1.29 1.37 1.53 1.66 1.76 1.87 1.93 1.94 1.94 2.06 2.00 1.94 1.99 2.09 2.33 2.27 2.25 2.20 2.11 2.00 1.92 1.70 1.35 1.14 1.17 1.17 1.07 0.92 0.80 0.75 0.63
0.70 0.77 0.84 0.85 0.95 1.07 1.19 1.21 1.15 1.08 1.06 1.12 1.17 1.18 1.27 1.44 1.56 1.59 1.62 1.66 1.70 1.79 1.84 1.76 1.77 1.85 1.97 2.15 2.21 2.16 2.14 2.05 1.98 1.91 1.59 1.27 1.13 1.13 1.09 1.09 0.93 0.76 0.66
0.64 0.69 0.77 0.80 0.83 0.84 0.85 0.78 0.82 0.85 0.92 0.99 1.10 1.15 1.24 1.33 1.48 1.50 1.48 1.44 1.48 1.52 1.62 1.67 1.69 1.75 1.76 1.85 1.82 1.89 1.98 2.09 2.11 1.99 1.81 1.54 1.33 1.23 1.16 1.09 0.99 0.93 0.78
0.74 0.81 0.86 0.87 0.87 0.87 0.85 0.81 0.80 0.83 0.89 1.01 1.19 1.25 1.27 1.29 1.31 1.37 1.43 1.39 1.29 1.25 1.28 1.32 1.43 1.55 1.58 1.72 1.67 1.65 1.77 1.96 2.18 2.15 1.99 1.72 1.55 1.44 1.32 1.23 1.21 1.09 0.98
0.65 0.77 0.83 0.86 0.87 0.84 0.78 0.75 0.79 0.76 0.75 0.90 1.06 1.22 1.27 1.26 1.23 1.31 1.38 1.40 1.33 1.19 1.14 1.16 1.20 1.31 1.55 1.62 1.53 1.67 1.80 1.82 1.94 2.01 2.00 1.88 1.69 1.50 1.32 1.21 1.19 1.22 1.15
0.55 0.65 0.81 0.87 0.80 0.76 0.69 0.68 0.71 0.70 0.67 0.76 0.91 1.08 1.17 1.16 1.55 1.55 1.39 1.37 1.34 1.20 1.11 1.10 1.06 1.05 1.24 1.49 1.58 1.62 1.75 1.85 1.85 1.83 1.85 1.75 1.64 1.53 1.51 1.43 1.32 1.23 1.17
0.48 0.60 0.80 0.81 0.70 0.65 0.71 0.75 0.72 0.70 0.70 0.75 0.79 0.81 0.90 1.19 1.24 1.04 1.09 1.14 1.25 1.16 1.04 0.96 0.87 0.84 0.97 1.04 1.16 1.24 1.43 1.73 1.88 1.86 1.71 1.59 1.64 1.55 1.51 1.45 1.37 1.27 1.17
0.41 0.50 0.65 0.68 0.66 0.69 0.70 0.68 0.63 0.59 0.58 0.62 0.64 0.68 0.75 0.90 0.89 0.84 0.94 0.90 1.05 1.05 0.95 0.91 0.88 0.85 0.90 0.95 1.05 1.15 1.19 1.28 1.46 1.48 1.43 1.46 1.52 1.58 1.53 1.50 1.56 1.52 1.42
0.28 0.37 0.46 0.50 0.54 0.57 0.56 0.56 0.52 0.49 0.51 0.52 0.57 0.64 0.73 0.73 0.75 0.74 0.79 0.90 1.05 1.02 0.92 0.92 0.89 0.87 1.02 1.07 1.04 1.08 1.18 1.20 1.31 1.41 1.56 1.57 1.45 1.39 1.42 1.42 1.49 1.51 1.47
0.20 0.27 0.34 0.37 0.41 0.43 0.48 0.51 0.51 0.48 0.46 0.46 0.49 0.54 0.62 0.65 0.77 0.64 0.74 0.92 1.03 1.05 1.02 0.94 1.04 1.02 1.11 1.07 1.01 1.13 1.22 1.10 1.03 1.07 1.16 1.21 1.13 1.11 1.22 1.18 1.28 1.36 1.30
0.11 0.16 0.23 0.30 0.38 0.45 0.51 0.52 0.55 0.52 0.47 0.46 0.54 0.55 0.55 0.64 0.76 0.71 0.74 0.83 1.02 1.05 1.08 1.03 0.91 0.96 0.95 1.00 1.08 1.17 1.36 1.22 1.07 1.07 1.12 1.11 1.02 1.00 1.02 1.07 1.15 1.24 1.24
0.06 0.11 0.18 0.26 0.33 0.42 0.51 0.54 0.54 0.54 0.53 0.54 0.56 0.59 0.57 0.56 0.63 0.67 0.68 0.75 0.86 0.90 0.99 0.95 0.88 0.91 0.79 0.80 0.88 1.03 1.30 1.21 1.06 1.07 1.10 1.10 1.04 0.98 1.00 1.00 1.05 1.10 1.11
0.03 0.06 0.11 0.15 0.19 0.25 0.33 0.41 0.47 0.51 0.53 0.54 0.58 0.67 0.68 0.62 0.65 0.75 0.61 0.58 0.65 0.69 0.70 0.78 0.76 0.74 0.68 0.65 0.76 0.88 1.01 1.14 1.14 1.07 1.01 0.98 0.97 0.95 0.97 0.94 0.94 0.98 0.97
0.01 0.03 0.05 0.06 0.07 0.10 0.20 0.28 0.35 0.42 0.48 0.55 0.62 0.71 0.78 0.73 0.66 0.60 0.52 0.49 0.52 0.50 0.45 0.46 0.48 0.53 0.53 0.55 0.62 0.69 0.83 1.03 1.13 1.05 0.94 0.93 0.94 0.92 0.91 0.84 0.84 0.89 0.90
0.01 0.01 0.02 0.04 0.06 0.08 0.14 0.22 0.27 0.34 0.37 0.41 0.52 0.64 0.68 0.67 0.66 0.71 0.69 0.65 0.61 0.58 0.54 0.48 0.45 0.48 0.55 0.59 0.62 0.64 0.72 0.85 0.92 0.90 0.83 0.80 0.83 0.87 0.86 0.80 0.74 0.76 0.77
0.06 0.03 0.02 0.03 0.06 0.08 0.11 0.13 0.13 0.16 0.16 0.20 0.25 0.30 0.34 0.37 0.39 0.38 0.45 0.52 0.51 0.49 0.61 0.67 0.63 0.65 0.65 0.62 0.64 0.60 0.57 0.61 0.72 0.78 0.78 0.73 0.70 0.75 0.80 0.79 0.75 0.74 0.72
0.14 0.11 0.07 0.05 0.05 0.06 0.07 0.10 0.11 0.07 0.05 0.07 0.09 0.14 0.20 0.21 0.22 0.22 0.25 0.33 0.41 0.46 0.61 0.64 0.57 0.51 0.50 0.48 0.50 0.51 0.51 0.50 0.54 0.63 0.66 0.67 0.64 0.66 0.76 0.81 0.80 0.80 0.79
0.03 0.03 0.05 0.08 0.05 0.04 0.07 0.13 0.19 0.21 0.15 0.08 0.04 0.06 0.11 0.15 0.16 0.18 0.20 0.26 0.28 0.33 0.42 0.49 0.45 0.40 0.35 0.34 0.33 0.32 0.36 0.39 0.42 0.47 0.52 0.55 0.59 0.62 0.67 0.74 0.78 0.77 0.77
0.01 0.03 0.09 0.10 0.06 0.05 0.10 0.18 0.20 0.19 0.18 0.12 0.06 0.03 0.05 0.07 0.09 0.10 0.14 0.19 0.20 0.18 0.21 0.28 0.32 0.31 0.27 0.22 0.18 0.17 0.18 0.19 0.24 0.31 0.39 0.44 0.47 0.52 0.58 0.64 0.68 0.74 0.74
0.02 0.02 0.09 0.14 0.08 0.08 0.10 0.10 0.10 0.12 0.10 0.07 0.06 0.05 0.04 0.06 0.07 0.06 0.06 0.09 0.10 0.10 0.12 0.16 0.19 0.20 0.19 0.17 0.14 0.12 0.12 0.14 0.15 0.19 0.26 0.35 0.39 0.40 0.42 0.49 0.56 0.60 0.59
0.06 0.03 0.03 0.14 0.18 0.14 0.12 0.10 0.11 0.13 0.09 0.05 0.04 0.01 0.02 0.05 0.07 0.07 0.05 0.07 0.08 0.10 0.11 0.11 0.12 0.16 0.15 0.14 0.13 0.13 0.13 0.13 0.12 0.15 0.17 0.21 0.26 0.29 0.31 0.34 0.36 0.41 0.47
0.02 0.03 0.04 0.13 0.18 0.14 0.11 0.11 0.12 0.10 0.08 0.05 0.03 0.01 0.02 0.04 0.06 0.07 0.05 0.07 0.08 0.09 0.09 0.08 0.10 0.14 0.15 0.12 0.12 0.14 0.15 0.14 0.12 0.14 0.16 0.19 0.20 0.21 0.22 0.24 0.26 0.29 0.31
0.01 0.02 0.03 0.07 0.08 0.04 0.05 0.08 0.09 0.09 0.06 0.04 0.03 0.02 0.03 0.04 0.04 0.05 0.06 0.09 0.12 0.12 0.10 0.08 0.10 0.15 0.17 0.18 0.17 0.18 0.19 0.18 0.16 0.14 0.16 0.19 0.21 0.23 0.22 0.22 0.23 0.27 0.30
0.01 0.01 0.02 0.04 0.04 0.05 0.08 0.09 0.07 0.06 0.06 0.04 0.03 0.04 0.05 0.05 0.05 0.05 0.06 0.09 0.12 0.13 0.10 0.09 0.10 0.12 0.16 0.20 0.23 0.23 0.22 0.21 0.17 0.15 0.15 0.17 0.19 0.21 0.22 0.24 0.26 0.28 0.32
0.02 0.02 0.02 0.04 0.05 0.05 0.05 0.07 0.07 0.06 0.07 0.06 0.06 0.04 0.05 0.06 0.07 0.05 0.04 0.06 0.08 0.09 0.08 0.09 0.11 0.15 0.18 0.20 0.23 0.26 0.32 0.32 0.25 0.20 0.18 0.18 0.20 0.22 0.25 0.27 0.30 0.34 0.38
0.02 0.02 0.02 0.04 0.06 0.06 0.06 0.07 0.07 0.06 0.07 0.07 0.06 0.06 0.07 0.07 0.06 0.05 0.05 0.06 0.06 0.07 0.10 0.11 0.13 0.16 0.19 0.20 0.19 0.21 0.24 0.23 0.22 0.23 0.19 0.19 0.21 0.24 0.28 0.32 0.35 0.40 0.46